Year,Month,Day,Hour,Minute,Value (Times are PST for temperature in C)
2014,12,14,00,00,7.20
2014,12,14,00,01,7.30
2014,12,14,00,02,7.30
2014,12,14,00,03,7.30
2014,12,14,00,04,7.30
2014,12,14,00,05,7.20
2014,12,14,00,06,7.20
2014,12,14,00,07,7.30
2014,12,14,00,08,7.30
2014,12,14,00,09,7.30
2014,12,14,00,10,7.20
2014,12,14,00,11,7.20
2014,12,14,00,12,7.30
2014,12,14,00,13,7.30
2014,12,14,00,14,7.30
2014,12,14,00,15,7.30
2014,12,14,00,16,7.30
2014,12,14,00,17,7.30
2014,12,14,00,18,7.30
2014,12,14,00,19,7.30
2014,12,14,00,20,7.30
2014,12,14,00,21,7.30
2014,12,14,00,22,7.20
2014,12,14,00,23,7.20
2014,12,14,00,24,7.20
2014,12,14,00,25,7.30
2014,12,14,00,26,7.30
2014,12,14,00,27,7.20
2014,12,14,00,28,7.20
2014,12,14,00,29,7.30
2014,12,14,00,30,7.30
2014,12,14,00,31,7.30
2014,12,14,00,32,7.30
2014,12,14,00,33,7.30
2014,12,14,00,34,7.30
2014,12,14,00,35,7.30
2014,12,14,00,36,7.30
2014,12,14,00,37,7.30
2014,12,14,00,38,7.30
2014,12,14,00,39,7.30
2014,12,14,00,40,7.30
2014,12,14,00,41,7.40
2014,12,14,00,42,7.50
2014,12,14,00,43,7.50
2014,12,14,00,44,7.50
2014,12,14,00,45,7.50
2014,12,14,00,46,7.50
2014,12,14,00,47,7.50
2014,12,14,00,48,7.60
2014,12,14,00,49,7.60
2014,12,14,00,50,7.50
2014,12,14,00,51,7.50
2014,12,14,00,52,7.50
2014,12,14,00,53,7.50
2014,12,14,00,54,7.50
2014,12,14,00,55,7.50
2014,12,14,00,56,7.40
2014,12,14,00,57,7.30
2014,12,14,00,58,7.30
2014,12,14,00,59,7.30
2014,12,14,01,00,7.30
2014,12,14,01,01,7.30
2014,12,14,01,02,7.20
2014,12,14,01,03,7.20
2014,12,14,01,04,7.20
2014,12,14,01,05,7.20
2014,12,14,01,06,7.20
2014,12,14,01,07,7.10
2014,12,14,01,08,7.10
2014,12,14,01,09,7.20
2014,12,14,01,10,7.30
2014,12,14,01,11,7.20
2014,12,14,01,12,7.20
2014,12,14,01,13,7.20
2014,12,14,01,14,7.20
2014,12,14,01,15,7.20
2014,12,14,01,16,7.20
2014,12,14,01,17,7.10
2014,12,14,01,18,7.10
2014,12,14,01,19,7.00
2014,12,14,01,20,7.10
2014,12,14,01,21,7.10
2014,12,14,01,22,7.00
2014,12,14,01,23,7.00
2014,12,14,01,24,7.00
2014,12,14,01,25,7.00
2014,12,14,01,26,7.10
2014,12,14,01,27,7.10
2014,12,14,01,28,7.10
2014,12,14,01,29,7.00
2014,12,14,01,30,6.90
2014,12,14,01,31,6.90
2014,12,14,01,32,6.90
2014,12,14,01,33,6.90
2014,12,14,01,34,6.80
2014,12,14,01,35,6.80
2014,12,14,01,36,6.80
2014,12,14,01,37,6.70
2014,12,14,01,38,6.70
2014,12,14,01,39,6.70
2014,12,14,01,40,6.70
2014,12,14,01,41,6.70
2014,12,14,01,42,6.70
2014,12,14,01,43,6.70
2014,12,14,01,44,6.60
2014,12,14,01,45,6.60
2014,12,14,01,46,6.60
2014,12,14,01,47,6.60
2014,12,14,01,48,6.60
2014,12,14,01,49,6.60
2014,12,14,01,50,6.60
2014,12,14,01,51,6.60
2014,12,14,01,52,6.60
2014,12,14,01,53,6.60
2014,12,14,01,54,6.60
2014,12,14,01,55,6.60
2014,12,14,01,56,6.50
2014,12,14,01,57,6.40
2014,12,14,01,58,6.50
2014,12,14,01,59,6.60
2014,12,14,02,00,6.60
2014,12,14,02,01,6.60
2014,12,14,02,02,6.60
2014,12,14,02,03,6.60
2014,12,14,02,04,6.60
2014,12,14,02,05,6.60
2014,12,14,02,06,6.50
2014,12,14,02,07,6.40
2014,12,14,02,08,6.40
2014,12,14,02,09,6.40
2014,12,14,02,10,6.50
2014,12,14,02,11,6.50
2014,12,14,02,12,6.40
2014,12,14,02,13,6.40
2014,12,14,02,14,6.40
2014,12,14,02,15,6.40
2014,12,14,02,16,6.30
2014,12,14,02,17,6.30
2014,12,14,02,18,6.20
2014,12,14,02,19,6.20
2014,12,14,02,20,6.30
2014,12,14,02,21,6.40
2014,12,14,02,22,6.40
2014,12,14,02,23,6.40
2014,12,14,02,24,6.40
2014,12,14,02,25,6.40
2014,12,14,02,26,6.40
2014,12,14,02,27,6.40
2014,12,14,02,28,6.40
2014,12,14,02,29,6.40
2014,12,14,02,30,6.40
2014,12,14,02,31,6.50
2014,12,14,02,32,6.60
2014,12,14,02,33,6.50
2014,12,14,02,34,6.40
2014,12,14,02,35,6.40
2014,12,14,02,36,6.40
2014,12,14,02,37,6.40
2014,12,14,02,38,6.40
2014,12,14,02,39,6.40
2014,12,14,02,40,6.30
2014,12,14,02,41,6.40
2014,12,14,02,42,6.40
2014,12,14,02,43,6.40
2014,12,14,02,44,6.40
2014,12,14,02,45,6.30
2014,12,14,02,46,6.30
2014,12,14,02,47,6.20
2014,12,14,02,48,6.30
2014,12,14,02,49,6.30
2014,12,14,02,50,6.20
2014,12,14,02,51,6.20
2014,12,14,02,52,6.20
2014,12,14,02,53,6.30
2014,12,14,02,54,6.30
2014,12,14,02,55,6.20
2014,12,14,02,56,6.20
2014,12,14,02,57,6.10
2014,12,14,02,58,6.10
2014,12,14,02,59,6.20
2014,12,14,03,00,6.20
2014,12,14,03,01,6.20
2014,12,14,03,02,6.20
2014,12,14,03,03,6.10
2014,12,14,03,04,6.10
2014,12,14,03,05,6.10
2014,12,14,03,06,6.20
2014,12,14,03,07,6.20
2014,12,14,03,08,6.10
2014,12,14,03,09,6.10
2014,12,14,03,10,6.10
2014,12,14,03,11,6.20
2014,12,14,03,12,6.20
2014,12,14,03,13,6.20
2014,12,14,03,14,6.10
2014,12,14,03,15,6.00
2014,12,14,03,16,6.00
2014,12,14,03,17,6.00
2014,12,14,03,18,6.00
2014,12,14,03,19,6.00
2014,12,14,03,20,5.90
2014,12,14,03,21,5.90
2014,12,14,03,22,5.90
2014,12,14,03,23,5.90
2014,12,14,03,24,5.90
2014,12,14,03,25,5.80
2014,12,14,03,26,5.80
2014,12,14,03,27,5.70
2014,12,14,03,28,5.70
2014,12,14,03,29,5.90
2014,12,14,03,30,5.90
2014,12,14,03,31,5.90
2014,12,14,03,32,5.80
2014,12,14,03,33,5.80
2014,12,14,03,34,5.80
2014,12,14,03,35,5.80
2014,12,14,03,36,5.80
2014,12,14,03,37,5.80
2014,12,14,03,38,5.70
2014,12,14,03,39,5.70
2014,12,14,03,40,5.70
2014,12,14,03,41,5.70
2014,12,14,03,42,5.80
2014,12,14,03,43,5.80
2014,12,14,03,44,5.70
2014,12,14,03,45,5.70
2014,12,14,03,46,5.70
2014,12,14,03,47,5.80
2014,12,14,03,48,5.90
2014,12,14,03,49,6.00
2014,12,14,03,50,6.00
2014,12,14,03,51,5.90
2014,12,14,03,52,5.90
2014,12,14,03,53,5.80
2014,12,14,03,54,6.00
2014,12,14,03,55,6.10
2014,12,14,03,56,6.00
2014,12,14,03,57,6.00
2014,12,14,03,58,5.90
2014,12,14,03,59,5.90
2014,12,14,04,00,6.00
2014,12,14,04,01,5.90
2014,12,14,04,02,5.90
2014,12,14,04,03,5.80
2014,12,14,04,04,5.80
2014,12,14,04,05,5.70
2014,12,14,04,06,5.70
2014,12,14,04,07,5.70
2014,12,14,04,08,5.60
2014,12,14,04,09,5.50
2014,12,14,04,10,5.50
2014,12,14,04,11,5.60
2014,12,14,04,12,5.70
2014,12,14,04,13,5.70
2014,12,14,04,14,5.70
2014,12,14,04,15,5.70
2014,12,14,04,16,5.60
2014,12,14,04,17,5.60
2014,12,14,04,18,5.60
2014,12,14,04,19,5.50
2014,12,14,04,20,5.50
2014,12,14,04,21,5.50
2014,12,14,04,22,5.50
2014,12,14,04,23,5.50
2014,12,14,04,24,5.50
2014,12,14,04,25,5.50
2014,12,14,04,26,5.50
2014,12,14,04,27,5.40
2014,12,14,04,28,5.40
2014,12,14,04,29,5.40
2014,12,14,04,30,5.40
2014,12,14,04,31,5.40
2014,12,14,04,32,5.40
2014,12,14,04,33,5.30
2014,12,14,04,34,5.30
2014,12,14,04,35,5.30
2014,12,14,04,36,5.30
2014,12,14,04,37,5.30
2014,12,14,04,38,5.30
2014,12,14,04,39,5.40
2014,12,14,04,40,5.50
2014,12,14,04,41,5.60
2014,12,14,04,42,5.60
2014,12,14,04,43,5.50
2014,12,14,04,44,5.50
2014,12,14,04,45,5.40
2014,12,14,04,46,5.50
2014,12,14,04,47,5.50
2014,12,14,04,48,5.50
2014,12,14,04,49,5.50
2014,12,14,04,50,5.40
2014,12,14,04,51,5.40
2014,12,14,04,52,5.40
2014,12,14,04,53,5.40
2014,12,14,04,54,5.40
2014,12,14,04,55,5.40
2014,12,14,04,56,5.30
2014,12,14,04,57,5.30
2014,12,14,04,58,5.30
2014,12,14,04,59,5.40
2014,12,14,05,00,5.40
2014,12,14,05,01,5.40
2014,12,14,05,02,5.30
2014,12,14,05,03,5.30
2014,12,14,05,04,5.30
2014,12,14,05,05,5.20
2014,12,14,05,06,5.20
2014,12,14,05,07,5.10
2014,12,14,05,08,5.10
2014,12,14,05,09,5.10
2014,12,14,05,10,5.10
2014,12,14,05,11,5.10
2014,12,14,05,12,5.10
2014,12,14,05,13,5.10
2014,12,14,05,14,5.10
2014,12,14,05,15,5.00
2014,12,14,05,16,4.90
2014,12,14,05,17,4.90
2014,12,14,05,18,4.90
2014,12,14,05,19,4.90
2014,12,14,05,20,4.90
2014,12,14,05,21,4.90
2014,12,14,05,22,4.90
2014,12,14,05,23,4.90
2014,12,14,05,24,4.90
2014,12,14,05,25,4.90
2014,12,14,05,26,4.90
2014,12,14,05,27,4.90
2014,12,14,05,28,4.90
2014,12,14,05,29,4.90
2014,12,14,05,30,4.90
2014,12,14,05,31,4.90
2014,12,14,05,32,4.90
2014,12,14,05,33,4.90
2014,12,14,05,34,4.90
2014,12,14,05,35,4.90
2014,12,14,05,36,4.90
2014,12,14,05,37,4.90
2014,12,14,05,38,4.90
2014,12,14,05,39,4.90
2014,12,14,05,40,4.90
2014,12,14,05,41,4.90
2014,12,14,05,42,4.90
2014,12,14,05,43,4.90
2014,12,14,05,44,4.90
2014,12,14,05,45,4.90
2014,12,14,05,46,4.90
2014,12,14,05,47,4.90
2014,12,14,05,48,4.90
2014,12,14,05,49,4.90
2014,12,14,05,50,4.90
2014,12,14,05,51,4.90
2014,12,14,05,52,4.90
2014,12,14,05,53,4.90
2014,12,14,05,54,4.90
2014,12,14,05,55,4.90
2014,12,14,05,56,4.90
2014,12,14,05,57,4.90
2014,12,14,05,58,4.80
2014,12,14,05,59,4.80
2014,12,14,06,00,4.80
2014,12,14,06,01,4.80
2014,12,14,06,02,4.70
2014,12,14,06,03,4.70
2014,12,14,06,04,4.70
2014,12,14,06,05,4.60
2014,12,14,06,06,4.60
2014,12,14,06,07,4.70
2014,12,14,06,08,4.80
2014,12,14,06,09,5.00
2014,12,14,06,10,5.10
2014,12,14,06,11,5.10
2014,12,14,06,12,5.20
2014,12,14,06,13,5.20
2014,12,14,06,14,5.10
2014,12,14,06,15,5.10
2014,12,14,06,16,5.10
2014,12,14,06,17,5.00
2014,12,14,06,18,4.90
2014,12,14,06,19,4.90
2014,12,14,06,20,5.00
2014,12,14,06,21,5.10
2014,12,14,06,22,5.10
2014,12,14,06,23,5.10
2014,12,14,06,24,5.10
2014,12,14,06,25,5.00
2014,12,14,06,26,4.90
2014,12,14,06,27,4.90
2014,12,14,06,28,4.90
2014,12,14,06,29,4.80
2014,12,14,06,30,4.80
2014,12,14,06,31,4.80
2014,12,14,06,32,4.70
2014,12,14,06,33,4.70
2014,12,14,06,34,4.70
2014,12,14,06,35,4.70
2014,12,14,06,36,4.70
2014,12,14,06,37,4.70
2014,12,14,06,38,4.70
2014,12,14,06,39,4.70
2014,12,14,06,40,4.70
2014,12,14,06,41,4.70
2014,12,14,06,42,4.70
2014,12,14,06,43,4.80
2014,12,14,06,44,4.80
2014,12,14,06,45,4.70
2014,12,14,06,46,4.70
2014,12,14,06,47,4.70
2014,12,14,06,48,4.70
2014,12,14,06,49,4.70
2014,12,14,06,50,4.60
2014,12,14,06,51,4.60
2014,12,14,06,52,4.60
2014,12,14,06,53,4.60
2014,12,14,06,54,4.60
2014,12,14,06,55,4.60
2014,12,14,06,56,4.70
2014,12,14,06,57,4.70
2014,12,14,06,58,4.70
2014,12,14,06,59,4.70
2014,12,14,07,00,4.70
2014,12,14,07,01,4.80
2014,12,14,07,02,4.80
2014,12,14,07,03,4.80
2014,12,14,07,04,4.80
2014,12,14,07,05,4.80
2014,12,14,07,06,4.80
2014,12,14,07,07,4.80
2014,12,14,07,08,4.80
2014,12,14,07,09,4.80
2014,12,14,07,10,4.80
2014,12,14,07,11,4.80
2014,12,14,07,12,4.70
2014,12,14,07,13,4.70
2014,12,14,07,14,4.70
2014,12,14,07,15,4.70
2014,12,14,07,16,4.70
2014,12,14,07,17,4.60
2014,12,14,07,18,4.60
2014,12,14,07,19,4.60
2014,12,14,07,20,4.60
2014,12,14,07,21,4.60
2014,12,14,07,22,4.60
2014,12,14,07,23,4.60
2014,12,14,07,24,4.60
2014,12,14,07,25,4.60
2014,12,14,07,26,4.60
2014,12,14,07,27,4.60
2014,12,14,07,28,4.60
2014,12,14,07,29,4.60
2014,12,14,07,30,4.60
2014,12,14,07,31,4.60
2014,12,14,07,32,4.60
2014,12,14,07,33,4.70
2014,12,14,07,34,4.90
2014,12,14,07,35,4.90
2014,12,14,07,36,4.90
2014,12,14,07,37,4.90
2014,12,14,07,38,4.80
2014,12,14,07,39,4.80
2014,12,14,07,40,4.70
2014,12,14,07,41,4.60
2014,12,14,07,42,4.60
2014,12,14,07,43,4.60
2014,12,14,07,44,4.50
2014,12,14,07,45,4.50
2014,12,14,07,46,4.50
2014,12,14,07,47,4.40
2014,12,14,07,48,4.40
2014,12,14,07,49,4.40
2014,12,14,07,50,4.30
2014,12,14,07,51,4.30
2014,12,14,07,52,4.30
2014,12,14,07,53,4.30
2014,12,14,07,54,4.30
2014,12,14,07,55,4.30
2014,12,14,07,56,4.20
2014,12,14,07,57,4.20
2014,12,14,07,58,4.20
2014,12,14,07,59,4.20
2014,12,14,08,00,4.20
2014,12,14,08,01,4.20
2014,12,14,08,02,4.20
2014,12,14,08,03,4.20
2014,12,14,08,04,4.20
2014,12,14,08,05,4.20
2014,12,14,08,06,4.20
2014,12,14,08,07,4.20
2014,12,14,08,08,4.20
2014,12,14,08,09,4.20
2014,12,14,08,10,4.20
2014,12,14,08,11,4.10
2014,12,14,08,12,4.10
2014,12,14,08,13,4.10
2014,12,14,08,14,4.10
2014,12,14,08,15,4.10
2014,12,14,08,16,4.10
2014,12,14,08,17,4.10
2014,12,14,08,18,4.10
2014,12,14,08,19,4.10
2014,12,14,08,20,4.10
2014,12,14,08,21,4.10
2014,12,14,08,22,4.10
2014,12,14,08,23,4.20
2014,12,14,08,24,4.20
2014,12,14,08,25,4.20
2014,12,14,08,26,4.20
2014,12,14,08,27,4.20
2014,12,14,08,28,4.20
2014,12,14,08,29,4.20
2014,12,14,08,30,4.20
2014,12,14,08,31,4.20
2014,12,14,08,32,4.20
2014,12,14,08,33,4.20
2014,12,14,08,34,4.20
2014,12,14,08,35,4.20
2014,12,14,08,36,4.20
2014,12,14,08,37,4.20
2014,12,14,08,38,4.20
2014,12,14,08,39,4.20
2014,12,14,08,40,4.20
2014,12,14,08,41,4.20
2014,12,14,08,42,4.30
2014,12,14,08,43,4.30
2014,12,14,08,44,4.30
2014,12,14,08,45,4.30
2014,12,14,08,46,4.30
2014,12,14,08,47,4.30
2014,12,14,08,48,4.30
2014,12,14,08,49,4.30
2014,12,14,08,50,4.40
2014,12,14,08,51,4.40
2014,12,14,08,52,4.50
2014,12,14,08,53,4.50
2014,12,14,08,54,4.60
2014,12,14,08,55,4.60
2014,12,14,08,56,4.60
2014,12,14,08,57,4.70
2014,12,14,08,58,4.80
2014,12,14,08,59,4.80
2014,12,14,09,00,4.90
2014,12,14,09,01,4.90
2014,12,14,09,02,4.90
2014,12,14,09,03,4.90
2014,12,14,09,04,4.90
2014,12,14,09,05,5.00
2014,12,14,09,06,5.10
2014,12,14,09,07,5.10
2014,12,14,09,08,5.10
2014,12,14,09,09,5.10
2014,12,14,09,10,5.10
2014,12,14,09,11,5.10
2014,12,14,09,12,5.10
2014,12,14,09,13,5.10
2014,12,14,09,14,5.10
2014,12,14,09,15,5.20
2014,12,14,09,16,5.20
2014,12,14,09,17,5.20
2014,12,14,09,18,5.20
2014,12,14,09,19,5.30
2014,12,14,09,20,5.30
2014,12,14,09,21,5.30
2014,12,14,09,22,5.30
2014,12,14,09,23,5.30
2014,12,14,09,24,5.30
2014,12,14,09,25,5.30
2014,12,14,09,26,5.30
2014,12,14,09,27,5.30
2014,12,14,09,28,5.30
2014,12,14,09,29,5.30
2014,12,14,09,30,5.30
2014,12,14,09,31,5.30
2014,12,14,09,32,5.30
2014,12,14,09,33,5.30
2014,12,14,09,34,5.30
2014,12,14,09,35,5.40
2014,12,14,09,36,5.40
2014,12,14,09,37,5.40
2014,12,14,09,38,5.40
2014,12,14,09,39,5.40
2014,12,14,09,40,5.40
2014,12,14,09,41,5.50
2014,12,14,09,42,5.50
2014,12,14,09,43,5.50
2014,12,14,09,44,5.50
2014,12,14,09,45,5.50
2014,12,14,09,46,5.50
2014,12,14,09,47,5.50
2014,12,14,09,48,5.50
2014,12,14,09,49,5.50
2014,12,14,09,50,5.50
2014,12,14,09,51,5.60
2014,12,14,09,52,5.60
2014,12,14,09,53,5.60
2014,12,14,09,54,5.70
2014,12,14,09,55,5.70
2014,12,14,09,56,5.70
2014,12,14,09,57,5.70
2014,12,14,09,58,5.70
2014,12,14,09,59,5.80
2014,12,14,10,00,5.80
2014,12,14,10,01,5.80
2014,12,14,10,02,5.80
2014,12,14,10,03,5.80
2014,12,14,10,04,5.80
2014,12,14,10,05,5.80
2014,12,14,10,06,5.90
2014,12,14,10,07,5.90
2014,12,14,10,08,5.90
2014,12,14,10,09,5.90
2014,12,14,10,10,5.90
2014,12,14,10,11,6.00
2014,12,14,10,12,6.00
2014,12,14,10,13,6.00
2014,12,14,10,14,6.00
2014,12,14,10,15,6.10
2014,12,14,10,16,6.10
2014,12,14,10,17,6.10
2014,12,14,10,18,6.20
2014,12,14,10,19,6.20
2014,12,14,10,20,6.20
2014,12,14,10,21,6.20
2014,12,14,10,22,6.20
2014,12,14,10,23,6.20
2014,12,14,10,24,6.30
2014,12,14,10,25,6.30
2014,12,14,10,26,6.30
2014,12,14,10,27,6.40
2014,12,14,10,28,6.40
2014,12,14,10,29,6.40
2014,12,14,10,30,6.40
2014,12,14,10,31,6.40
2014,12,14,10,32,6.40
2014,12,14,10,33,6.40
2014,12,14,10,34,6.40
2014,12,14,10,35,6.40
2014,12,14,10,36,6.30
2014,12,14,10,37,6.30
2014,12,14,10,38,6.30
2014,12,14,10,39,6.30
2014,12,14,10,40,6.30
2014,12,14,10,41,6.30
2014,12,14,10,42,6.30
2014,12,14,10,43,6.30
2014,12,14,10,44,6.30
2014,12,14,10,45,6.30
2014,12,14,10,46,6.30
2014,12,14,10,47,6.30
2014,12,14,10,48,6.30
2014,12,14,10,49,6.20
2014,12,14,10,50,6.20
2014,12,14,10,51,6.20
2014,12,14,10,52,6.20
2014,12,14,10,53,6.20
2014,12,14,10,54,6.20
2014,12,14,10,55,6.30
2014,12,14,10,56,6.30
2014,12,14,10,57,6.30
2014,12,14,10,58,6.30
2014,12,14,10,59,6.30
2014,12,14,11,00,6.30
2014,12,14,11,01,6.30
2014,12,14,11,02,6.30
2014,12,14,11,03,6.30
2014,12,14,11,04,6.40
2014,12,14,11,05,6.40
2014,12,14,11,06,6.40
2014,12,14,11,07,6.40
2014,12,14,11,08,6.40
2014,12,14,11,09,6.40
2014,12,14,11,10,6.40
2014,12,14,11,11,6.50
2014,12,14,11,12,6.60
2014,12,14,11,13,6.60
2014,12,14,11,14,6.60
2014,12,14,11,15,6.60
2014,12,14,11,16,6.60
2014,12,14,11,17,6.60
2014,12,14,11,18,6.60
2014,12,14,11,19,6.70
2014,12,14,11,20,6.70
2014,12,14,11,21,6.70
2014,12,14,11,22,6.70
2014,12,14,11,23,6.70
2014,12,14,11,24,6.80
2014,12,14,11,25,6.80
2014,12,14,11,26,6.80
2014,12,14,11,27,6.80
2014,12,14,11,28,6.80
2014,12,14,11,29,6.80
2014,12,14,11,30,6.80
2014,12,14,11,31,6.80
2014,12,14,11,32,6.80
2014,12,14,11,33,6.80
2014,12,14,11,34,6.80
2014,12,14,11,35,6.80
2014,12,14,11,36,6.80
2014,12,14,11,37,6.80
2014,12,14,11,38,6.80
2014,12,14,11,39,6.80
2014,12,14,11,40,6.80
2014,12,14,11,41,6.80
2014,12,14,11,42,6.80
2014,12,14,11,43,6.80
2014,12,14,11,44,6.70
2014,12,14,11,45,6.70
2014,12,14,11,46,6.70
2014,12,14,11,47,6.70
2014,12,14,11,48,6.80
2014,12,14,11,49,6.80
2014,12,14,11,50,6.80
2014,12,14,11,51,6.80
2014,12,14,11,52,6.80
2014,12,14,11,53,6.80
2014,12,14,11,54,6.80
2014,12,14,11,55,6.80
2014,12,14,11,56,6.90
2014,12,14,11,57,6.90
2014,12,14,11,58,6.90
2014,12,14,11,59,7.00
2014,12,14,12,00,7.00
2014,12,14,12,01,7.00
2014,12,14,12,02,7.00
2014,12,14,12,03,7.10
2014,12,14,12,04,7.10
2014,12,14,12,05,7.20
2014,12,14,12,06,7.20
2014,12,14,12,07,7.20
2014,12,14,12,08,7.30
2014,12,14,12,09,7.30
2014,12,14,12,10,7.30
2014,12,14,12,11,7.30
2014,12,14,12,12,7.30
2014,12,14,12,13,7.30
2014,12,14,12,14,7.30
2014,12,14,12,15,7.30
2014,12,14,12,16,7.30
2014,12,14,12,17,7.30
2014,12,14,12,18,7.30
2014,12,14,12,19,7.30
2014,12,14,12,20,7.30
2014,12,14,12,21,7.30
2014,12,14,12,22,7.30
2014,12,14,12,23,7.30
2014,12,14,12,24,7.30
2014,12,14,12,25,7.30
2014,12,14,12,26,7.30
2014,12,14,12,27,7.30
2014,12,14,12,28,7.30
2014,12,14,12,29,7.30
2014,12,14,12,30,7.30
2014,12,14,12,31,7.30
2014,12,14,12,32,7.30
2014,12,14,12,33,7.30
2014,12,14,12,34,7.30
2014,12,14,12,35,7.30
2014,12,14,12,36,7.30
2014,12,14,12,37,7.30
2014,12,14,12,38,7.30
2014,12,14,12,39,7.30
2014,12,14,12,40,7.30
2014,12,14,12,41,7.30
2014,12,14,12,42,7.30
2014,12,14,12,43,7.30
2014,12,14,12,44,7.40
2014,12,14,12,45,7.40
2014,12,14,12,46,7.50
2014,12,14,12,47,7.50
2014,12,14,12,48,7.50
2014,12,14,12,49,7.50
2014,12,14,12,50,7.50
2014,12,14,12,51,7.50
2014,12,14,12,52,7.60
2014,12,14,12,53,7.60
2014,12,14,12,54,7.70
2014,12,14,12,55,7.70
2014,12,14,12,56,7.70
2014,12,14,12,57,7.60
2014,12,14,12,58,7.60
2014,12,14,12,59,7.70
2014,12,14,13,00,7.70
2014,12,14,13,01,7.70
2014,12,14,13,02,7.70
2014,12,14,13,03,7.70
2014,12,14,13,04,7.80
2014,12,14,13,05,7.80
2014,12,14,13,06,7.80
2014,12,14,13,07,7.80
2014,12,14,13,08,7.80
2014,12,14,13,09,7.90
2014,12,14,13,10,7.90
2014,12,14,13,11,8.00
2014,12,14,13,12,8.00
2014,12,14,13,13,8.10
2014,12,14,13,14,8.20
2014,12,14,13,15,8.20
2014,12,14,13,16,8.20
2014,12,14,13,17,8.30
2014,12,14,13,18,8.40
2014,12,14,13,19,8.40
2014,12,14,13,20,8.40
2014,12,14,13,21,8.40
2014,12,14,13,22,8.40
2014,12,14,13,23,8.30
2014,12,14,13,24,8.30
2014,12,14,13,25,8.30
2014,12,14,13,26,8.30
2014,12,14,13,27,8.30
2014,12,14,13,28,8.20
2014,12,14,13,29,8.20
2014,12,14,13,30,8.20
2014,12,14,13,31,8.30
2014,12,14,13,32,8.30
2014,12,14,13,33,8.30
2014,12,14,13,34,8.30
2014,12,14,13,35,8.30
2014,12,14,13,36,8.40
2014,12,14,13,37,8.40
2014,12,14,13,38,8.40
2014,12,14,13,39,8.40
2014,12,14,13,40,8.40
2014,12,14,13,41,8.30
2014,12,14,13,42,8.40
2014,12,14,13,43,8.40
2014,12,14,13,44,8.40
2014,12,14,13,45,8.40
2014,12,14,13,46,8.40
2014,12,14,13,47,8.50
2014,12,14,13,48,8.50
2014,12,14,13,49,8.40
2014,12,14,13,50,8.40
2014,12,14,13,51,8.40
2014,12,14,13,52,8.40
2014,12,14,13,53,8.30
2014,12,14,13,54,8.30
2014,12,14,13,55,8.30
2014,12,14,13,56,8.30
2014,12,14,13,57,8.30
2014,12,14,13,58,8.20
2014,12,14,13,59,8.20
2014,12,14,14,00,8.20
2014,12,14,14,01,8.20
2014,12,14,14,02,8.20
2014,12,14,14,03,8.20
2014,12,14,14,04,8.30
2014,12,14,14,05,8.30
2014,12,14,14,06,8.20
2014,12,14,14,07,8.20
2014,12,14,14,08,8.20
2014,12,14,14,09,8.20
2014,12,14,14,10,8.20
2014,12,14,14,11,8.20
2014,12,14,14,12,8.10
2014,12,14,14,13,8.10
2014,12,14,14,14,8.10
2014,12,14,14,15,8.10
2014,12,14,14,16,8.10
2014,12,14,14,17,8.10
2014,12,14,14,18,8.10
2014,12,14,14,19,8.10
2014,12,14,14,20,8.10
2014,12,14,14,21,8.10
2014,12,14,14,22,8.10
2014,12,14,14,23,8.00
2014,12,14,14,24,8.00
2014,12,14,14,25,8.00
2014,12,14,14,26,8.00
2014,12,14,14,27,8.00
2014,12,14,14,28,8.00
2014,12,14,14,29,8.00
2014,12,14,14,30,8.00
2014,12,14,14,31,8.00
2014,12,14,14,32,8.00
2014,12,14,14,33,8.00
2014,12,14,14,34,8.00
2014,12,14,14,35,8.00
2014,12,14,14,36,8.00
2014,12,14,14,37,8.00
2014,12,14,14,38,8.00
2014,12,14,14,39,8.00
2014,12,14,14,40,8.00
2014,12,14,14,41,8.00
2014,12,14,14,42,8.00
2014,12,14,14,43,8.00
2014,12,14,14,44,8.00
2014,12,14,14,45,8.10
2014,12,14,14,46,8.10
2014,12,14,14,47,8.10
2014,12,14,14,48,8.10
2014,12,14,14,49,8.00
2014,12,14,14,50,8.00
2014,12,14,14,51,8.00
2014,12,14,14,52,8.00
2014,12,14,14,53,8.00
2014,12,14,14,54,7.90
2014,12,14,14,55,7.90
2014,12,14,14,56,7.90
2014,12,14,14,57,7.90
2014,12,14,14,58,7.90
2014,12,14,14,59,7.90
2014,12,14,15,00,7.90
2014,12,14,15,01,7.90
2014,12,14,15,02,7.80
2014,12,14,15,03,7.80
2014,12,14,15,04,7.80
2014,12,14,15,05,7.80
2014,12,14,15,06,7.80
2014,12,14,15,07,7.80
2014,12,14,15,08,7.80
2014,12,14,15,09,7.80
2014,12,14,15,10,7.80
2014,12,14,15,11,7.70
2014,12,14,15,12,7.70
2014,12,14,15,13,7.70
2014,12,14,15,14,7.70
2014,12,14,15,15,7.70
2014,12,14,15,16,7.70
2014,12,14,15,17,7.60
2014,12,14,15,18,7.60
2014,12,14,15,19,7.60
2014,12,14,15,20,7.60
2014,12,14,15,21,7.60
2014,12,14,15,22,7.60
2014,12,14,15,23,7.60
2014,12,14,15,24,7.60
2014,12,14,15,25,7.60
2014,12,14,15,26,7.60
2014,12,14,15,27,7.60
2014,12,14,15,28,7.50
2014,12,14,15,29,7.50
2014,12,14,15,30,7.50
2014,12,14,15,31,7.50
2014,12,14,15,32,7.50
2014,12,14,15,33,7.40
2014,12,14,15,34,7.40
2014,12,14,15,35,7.40
2014,12,14,15,36,7.40
2014,12,14,15,37,7.40
2014,12,14,15,38,7.40
2014,12,14,15,39,7.40
2014,12,14,15,40,7.40
2014,12,14,15,41,7.40
2014,12,14,15,42,7.40
2014,12,14,15,43,7.40
2014,12,14,15,44,7.40
2014,12,14,15,45,7.40
2014,12,14,15,46,7.40
2014,12,14,15,47,7.40
2014,12,14,15,48,7.40
2014,12,14,15,49,7.40
2014,12,14,15,50,7.40
2014,12,14,15,51,7.40
2014,12,14,15,52,7.40
2014,12,14,15,53,7.40
2014,12,14,15,54,7.40
2014,12,14,15,55,7.40
2014,12,14,15,56,7.40
2014,12,14,15,57,7.40
2014,12,14,15,58,7.40
2014,12,14,15,59,7.40
2014,12,14,16,00,7.30
2014,12,14,16,01,7.30
2014,12,14,16,02,7.30
2014,12,14,16,03,7.30
2014,12,14,16,04,7.30
2014,12,14,16,05,7.30
2014,12,14,16,06,7.20
2014,12,14,16,07,7.20
2014,12,14,16,08,7.20
2014,12,14,16,09,7.10
2014,12,14,16,10,7.10
2014,12,14,16,11,7.00
2014,12,14,16,12,7.00
2014,12,14,16,13,7.00
2014,12,14,16,14,6.90
2014,12,14,16,15,6.90
2014,12,14,16,16,6.80
2014,12,14,16,17,6.80
2014,12,14,16,18,6.80
2014,12,14,16,19,6.80
2014,12,14,16,20,6.80
2014,12,14,16,21,6.70
2014,12,14,16,22,6.70
2014,12,14,16,23,6.70
2014,12,14,16,24,6.70
2014,12,14,16,25,6.60
2014,12,14,16,26,6.60
2014,12,14,16,27,6.60
2014,12,14,16,28,6.60
2014,12,14,16,29,6.60
2014,12,14,16,30,6.60
2014,12,14,16,31,6.50
2014,12,14,16,32,6.40
2014,12,14,16,33,6.40
2014,12,14,16,34,6.40
2014,12,14,16,35,6.40
2014,12,14,16,36,6.40
2014,12,14,16,37,6.40
2014,12,14,16,38,6.40
2014,12,14,16,39,6.40
2014,12,14,16,40,6.40
2014,12,14,16,41,6.40
2014,12,14,16,42,6.40
2014,12,14,16,43,6.40
2014,12,14,16,44,6.40
2014,12,14,16,45,6.40
2014,12,14,16,46,6.40
2014,12,14,16,47,6.40
2014,12,14,16,48,6.40
2014,12,14,16,49,6.40
2014,12,14,16,50,6.30
2014,12,14,16,51,6.30
2014,12,14,16,52,6.30
2014,12,14,16,53,6.30
2014,12,14,16,54,6.30
2014,12,14,16,55,6.30
2014,12,14,16,56,6.30
2014,12,14,16,57,6.30
2014,12,14,16,58,6.30
2014,12,14,16,59,6.20
2014,12,14,17,00,6.20
2014,12,14,17,01,6.20
2014,12,14,17,02,6.20
2014,12,14,17,03,6.10
2014,12,14,17,04,6.10
2014,12,14,17,05,6.00
2014,12,14,17,06,6.00
2014,12,14,17,07,6.00
2014,12,14,17,08,5.90
2014,12,14,17,09,5.90
2014,12,14,17,10,5.90
2014,12,14,17,11,5.80
2014,12,14,17,12,5.80
2014,12,14,17,13,5.80
2014,12,14,17,14,5.80
2014,12,14,17,15,5.80
2014,12,14,17,16,5.80
2014,12,14,17,17,5.80
2014,12,14,17,18,5.70
2014,12,14,17,19,5.70
2014,12,14,17,20,5.70
2014,12,14,17,21,5.70
2014,12,14,17,22,5.70
2014,12,14,17,23,5.70
2014,12,14,17,24,5.70
2014,12,14,17,25,5.70
2014,12,14,17,26,5.70
2014,12,14,17,27,5.70
2014,12,14,17,28,5.70
2014,12,14,17,29,5.70
2014,12,14,17,30,5.70
2014,12,14,17,31,5.70
2014,12,14,17,32,5.70
2014,12,14,17,33,5.70
2014,12,14,17,34,5.60
2014,12,14,17,35,5.60
2014,12,14,17,36,5.60
2014,12,14,17,37,5.60
2014,12,14,17,38,5.60
2014,12,14,17,39,5.60
2014,12,14,17,40,5.60
2014,12,14,17,41,5.60
2014,12,14,17,42,5.60
2014,12,14,17,43,5.60
2014,12,14,17,44,5.60
2014,12,14,17,45,5.70
2014,12,14,17,46,5.70
2014,12,14,17,47,5.70
2014,12,14,17,48,5.70
2014,12,14,17,49,5.70
2014,12,14,17,50,5.70
2014,12,14,17,51,5.80
2014,12,14,17,52,5.80
2014,12,14,17,53,5.80
2014,12,14,17,54,5.70
2014,12,14,17,55,5.70
2014,12,14,17,56,5.70
2014,12,14,17,57,5.70
2014,12,14,17,58,5.70
2014,12,14,17,59,5.70
2014,12,14,18,00,5.70
2014,12,14,18,01,5.70
2014,12,14,18,02,5.70
2014,12,14,18,03,5.70
2014,12,14,18,04,5.70
2014,12,14,18,05,5.70
2014,12,14,18,06,5.70